Bartlesville, OK

6:42 PM CST on February 19, 2018 (GMT -0600)
Bartlesville Municipal

Weather History for KBVO - March, 2013

Change the Weather History Date:

Tuesday, March 12, 2013

  Actual Average Record
Temperature  
Mean Temperature 44 °F -  
Max Temperature 61 °F 62 °F 93 °F (1967)
Min Temperature 28 °F 37 °F -8 °F (1948)
Degree Days  
Heating Degree Days 21    
Moisture  
Dew Point 28 °F    
Average Humidity 57    
Maximum Humidity 92    
Minimum Humidity 27    
Precipitation  
Precipitation 0.06 in - - ()
Sea Level Pressure  
Sea Level Pressure 30.23 in    
Wind  
Wind Speed 3 mph (NNW)    
Max Wind Speed 14 mph    
Max Gust Speed 24 mph    
Visibility 10 miles    
Events Rain    
Averages and records for this station are not official NWS values.
T = Trace of Precipitation, MM = Missing Value Source: NWS Daily Summary

Daily Weather History Graph

Daily Weather History Graph

Search for Another Location

Airport or City:

Trip Planner

Search our weather history database for the weather conditions in past years. The results will help you decide how hot, cold, wet, or windy it might be!

Date:

Astronomy

Mar. 12, 2013 Rise Set
Actual Time 7:38 AM CDT 7:28 PM CDT
Civil Twilight 7:13 AM CDT 7:54 PM CDT
Nautical Twilight 6:43 AM CDT 8:24 PM CDT
Astronomical Twilight 6:12 AM CDT 8:55 PM CDT
Moon 7:48 AM CDT (3/12) 8:41 PM CDT (3/12)
Length of Visible Light 12h 41m
Length of Day
11h 50m
New Moon, 1% of the Moon is Illuminated
Mar 12
New Moon
Mar 19
First Quarter
Mar 27
Full
Apr 2
Last Quarter
Apr 10
New

Hourly Weather History & Observations

Time (CDT) Temp. Windchill Dew Point Humidity Pressure Visibility Wind Dir Wind Speed Gust Speed Precip Events Conditions
12:53 AM 28.0 °F - 23.0 °F 81% 30.07 in 10.0 mi Calm Calm - N/A   Clear
1:53 AM 32.0 °F - 24.1 °F 73% 30.08 in 10.0 mi Calm Calm - N/A   Mostly Cloudy
2:53 AM 33.1 °F - 28.0 °F 82% 30.08 in 10.0 mi Calm Calm - N/A   Mostly Cloudy
3:53 AM 35.1 °F - 32.0 °F 89% 30.09 in 10.0 mi Calm Calm - 0.00 in   Overcast
4:53 AM 39.9 °F - 36.0 °F 86% 30.13 in 10.0 mi Calm Calm - 0.02 in Rain Light Rain
5:53 AM 42.1 °F 38.4 °F 39.0 °F 89% 30.14 in 10.0 mi West 5.8 mph - 0.03 in Rain Light Rain
8:53 AM 42.1 °F - 39.9 °F 92% 30.22 in 10.0 mi Calm Calm - 0.01 in   Overcast
9:53 AM 46.0 °F 42.5 °F 34.0 °F 63% 30.26 in 10.0 mi North 6.9 mph - N/A   Overcast
10:53 AM 48.9 °F - 30.9 °F 50% 30.27 in 10.0 mi NNE 3.5 mph - N/A   Partly Cloudy
11:53 AM 51.1 °F - 27.0 °F 39% 30.27 in 10.0 mi Variable 6.9 mph - N/A   Clear
12:53 PM 54.0 °F - 26.1 °F 34% 30.28 in 10.0 mi Variable 4.6 mph - N/A   Clear
1:53 PM 55.9 °F - 24.1 °F 29% 30.26 in 10.0 mi Variable 5.8 mph - N/A   Clear
2:53 PM 57.9 °F - 26.1 °F 30% 30.24 in 10.0 mi Variable 5.8 mph - N/A   Clear
3:53 PM 60.1 °F - 26.1 °F 27% 30.23 in 10.0 mi Variable 5.8 mph - N/A   Clear
4:53 PM 57.0 °F - 26.1 °F 30% 30.24 in 10.0 mi WNW 10.4 mph 24.2 mph N/A   Clear
5:53 PM 57.0 °F - 24.1 °F 28% 30.23 in 10.0 mi Variable 6.9 mph - N/A   Clear
6:53 PM 51.1 °F - 24.1 °F 35% 30.26 in 10.0 mi North 13.8 mph 20.7 mph N/A   Clear
7:53 PM 45.0 °F - 25.0 °F 46% 30.29 in 10.0 mi Calm Calm - N/A   Clear
8:53 PM 43.0 °F 41.3 °F 25.0 °F 49% 30.32 in 10.0 mi North 3.5 mph - N/A   Clear
9:53 PM 37.9 °F - 23.0 °F 55% 30.34 in 10.0 mi Calm Calm - N/A   Clear
10:53 PM 33.1 °F - 24.1 °F 70% 30.36 in 10.0 mi Calm Calm - N/A   Clear
11:53 PM 30.9 °F - 24.1 °F 76% 30.38 in 10.0 mi Calm Calm - N/A   Clear